Weather History for Aurora, NE

Change the Weather History Date:

Sunday, February 17, 2013

  Actual Average Record
Temperature  
Mean Temperature 43 °F -  
Max Temperature 64 °F 39 °F 69 °F (1970)
Min Temperature 22 °F 18 °F -16 °F (1979)
Degree Days  
Heating Degree Days 22    
Moisture  
Dew Point 26 °F    
Average Humidity 59    
Maximum Humidity 89    
Minimum Humidity 24    
Precipitation  
Precipitation 0.00 in - - ()
Sea Level Pressure  
Sea Level Pressure 29.73 in    
Wind  
Wind Speed 6 mph (South)    
Max Wind Speed 21 mph    
Max Gust Speed 28 mph    
Visibility 10 miles    
Events      
Averages and records for this station are not official NWS values.
T = Trace of Precipitation, MM = Missing Value Source: NWS Daily Summary

Daily Weather History Graph

Daily Weather History Graph

Search for Another Location

Airport:

Trip Planner

Search our weather history database for the weather conditions in past years. The results will help you decide how hot, cold, wet, or windy it might be!

Date:

Astronomy

Feb. 17, 2013 Rise Set
Actual Time 7:23 AM CST 6:09 PM CST
Civil Twilight 6:55 AM CST 6:37 PM CST
Nautical Twilight 6:23 AM CST 7:09 PM CST
Astronomical Twilight 5:51 AM CST 7:41 PM CST
Moon 11:13 AM CST (2/17) 1:09 AM CST (2/17)
Length of Visible Light 11h 42m
Length of Day
10h 46m
Waxing Crescent, 49% of the Moon is Illuminated
Feb 17
Waxing Crescent
Feb 17
First Quarter
Feb 25
Full
Mar 4
Last Quarter
Mar 11
New

Hourly Weather History & Observations

Time (CST) Temp. Windchill Dew Point Humidity Pressure Visibility Wind Dir Wind Speed Gust Speed Precip Events Conditions
12:15 AM 26.8 °F 22.8 °F 21.9 °F 82% 29.94 in 10.0 mi SE 3.5 mph - N/A   Clear
12:35 AM 27.3 °F - 22.1 °F 81% 29.94 in 10.0 mi Calm Calm - N/A   Clear
12:55 AM 27.0 °F 23.0 °F 21.9 °F 81% 29.94 in 10.0 mi South 3.5 mph - N/A   Clear
1:15 AM 27.7 °F 22.4 °F 21.4 °F 77% 29.94 in 10.0 mi South 4.6 mph - N/A   Clear
1:35 AM 28.2 °F - 21.2 °F 75% 29.93 in 10.0 mi Calm Calm - N/A   Clear
1:55 AM 26.8 °F - 21.2 °F 79% 29.93 in 10.0 mi Calm Calm - N/A   Clear
2:15 AM 26.2 °F 22.1 °F 20.8 °F 80% 29.93 in 10.0 mi South 3.5 mph - N/A   Clear
2:35 AM 23.7 °F 19.3 °F 19.2 °F 83% 29.93 in 10.0 mi SW 3.5 mph - N/A   Clear
2:55 AM 26.6 °F 21.2 °F 21.6 °F 81% 29.92 in 10.0 mi SW 4.6 mph - N/A   Clear
3:15 AM 23.4 °F - 19.8 °F 86% 29.92 in 10.0 mi Calm Calm - N/A   Clear
3:35 AM 24.1 °F 19.7 °F 20.3 °F 85% 29.91 in 10.0 mi West 3.5 mph - N/A   Clear
3:55 AM 24.6 °F 20.3 °F 21.2 °F 87% 29.90 in 10.0 mi West 3.5 mph - N/A   Clear
4:15 AM 25.9 °F - 21.4 °F 83% 29.89 in 10.0 mi Calm Calm - N/A   Clear
4:35 AM 22.6 °F - 19.4 °F 87% 29.88 in 10.0 mi Calm Calm - N/A   Clear
4:55 AM 23.0 °F - 19.6 °F 87% 29.88 in 10.0 mi Calm Calm - N/A   Clear
5:15 AM 22.8 °F 16.7 °F 19.4 °F 87% 29.87 in 10.0 mi East 4.6 mph - N/A   Clear
5:35 AM 23.4 °F 17.4 °F 19.9 °F 87% 29.87 in 10.0 mi SE 4.6 mph - N/A   Clear
5:55 AM 22.5 °F 16.3 °F 19.6 °F 89% 29.87 in 10.0 mi SSE 4.6 mph - N/A   Clear
6:15 AM 24.4 °F 17.5 °F 20.5 °F 85% 29.86 in 10.0 mi SE 5.8 mph - N/A   Clear
6:35 AM 23.9 °F 15.8 °F 20.3 °F 86% 29.86 in 10.0 mi SE 6.9 mph - N/A   Clear
6:55 AM 24.8 °F 16.1 °F 21.2 °F 86% 29.85 in 10.0 mi SSE 8.1 mph - N/A   Clear
7:15 AM 25.7 °F 17.1 °F 22.1 °F 86% 29.84 in 10.0 mi SSE 8.1 mph - N/A   Clear
7:35 AM 26.8 °F 19.3 °F 23.0 °F 86% 29.83 in 10.0 mi SSE 6.9 mph - N/A   Clear
7:55 AM 28.8 °F 22.6 °F 24.3 °F 83% 29.84 in 10.0 mi South 5.8 mph - N/A   Clear
8:15 AM 30.2 °F 21.3 °F 24.4 °F 79% 29.84 in 10.0 mi South 10.4 mph - N/A   Clear
8:35 AM 32.0 °F 24.8 °F 25.5 °F 77% 29.82 in 10.0 mi South 8.1 mph - N/A   Clear
8:55 AM 33.1 °F 24.9 °F 26.4 °F 77% 29.82 in 10.0 mi SSW 10.4 mph - N/A   Clear
9:15 AM 34.5 °F 27.3 °F 28.2 °F 78% 29.82 in 10.0 mi SSW 9.2 mph - N/A   Clear
9:35 AM 36.5 °F 30.3 °F 28.9 °F 74% 29.82 in 10.0 mi SSW 8.1 mph - N/A   Clear
9:55 AM 38.7 °F 31.8 °F 30.0 °F 71% 29.81 in 10.0 mi SSW 10.4 mph - N/A   Clear
10:15 AM 41.2 °F 35.5 °F 29.7 °F 64% 29.80 in 10.0 mi South 9.2 mph - N/A   Clear
10:35 AM 43.5 °F 38.3 °F 29.8 °F 59% 29.79 in 10.0 mi South 9.2 mph - N/A   Clear
10:55 AM 45.3 °F 40.6 °F 30.2 °F 56% 29.78 in 10.0 mi South 9.2 mph - N/A   Clear
11:15 AM 47.7 °F - 30.7 °F 52% 29.76 in 10.0 mi South 8.1 mph - N/A   Clear
11:35 AM 50.0 °F - 31.1 °F 48% 29.76 in 10.0 mi South 10.4 mph - N/A   Clear
11:55 AM 52.3 °F - 31.1 °F 44% 29.75 in 10.0 mi SSW 11.5 mph - N/A   Clear
12:15 PM 54.7 °F - 31.1 °F 41% 29.73 in 10.0 mi SSW 16.1 mph - N/A   Clear
12:35 PM 56.8 °F - 30.9 °F 37% 29.71 in 10.0 mi SSW 17.3 mph 21.9 mph N/A   Clear
12:55 PM 59.0 °F - 30.2 °F 34% 29.69 in 10.0 mi South 19.6 mph 26.5 mph N/A   Clear
1:15 PM 61.7 °F - 29.8 °F 30% 29.68 in 10.0 mi SSW 18.4 mph 24.2 mph N/A   Clear
1:35 PM 62.6 °F - 28.8 °F 28% 29.66 in 10.0 mi SSW 19.6 mph 25.3 mph N/A   Clear
1:55 PM 63.1 °F - 29.1 °F 28% 29.65 in 10.0 mi SSW 20.7 mph 26.5 mph N/A   Clear
2:15 PM 63.7 °F - 28.0 °F 26% 29.64 in 10.0 mi SSW 20.7 mph - N/A   Clear
2:35 PM 64.8 °F - 27.0 °F 24% 29.63 in 10.0 mi SSW 19.6 mph 27.6 mph N/A   Clear
2:55 PM 63.5 °F - 27.7 °F 26% 29.62 in 10.0 mi South 17.3 mph 23.0 mph N/A   Clear
3:15 PM 61.5 °F - 28.4 °F 29% 29.61 in 10.0 mi South 15.0 mph 19.6 mph N/A   Clear
3:35 PM 61.0 °F - 28.0 °F 29% 29.60 in 10.0 mi South 13.8 mph 21.9 mph N/A   Clear
3:55 PM 59.9 °F - 29.5 °F 32% 29.59 in 10.0 mi South 13.8 mph 19.6 mph N/A   Clear
4:15 PM 60.1 °F - 29.8 °F 32% 29.59 in 10.0 mi South 11.5 mph - N/A   Clear
4:35 PM 60.1 °F - 29.8 °F 32% 29.58 in 10.0 mi South 10.4 mph - N/A   Clear
4:55 PM 59.2 °F - 29.1 °F 32% 29.58 in 10.0 mi South 8.1 mph - N/A   Clear
5:15 PM 58.1 °F - 29.7 °F 34% 29.57 in 10.0 mi South 10.4 mph - N/A   Clear
5:35 PM 56.3 °F - 30.0 °F 37% 29.56 in 10.0 mi South 10.4 mph - N/A   Clear
6:15 PM 54.0 °F - 30.9 °F 41% 29.56 in 10.0 mi South 10.4 mph - N/A   Clear
6:35 PM 52.0 °F - 30.4 °F 44% 29.56 in 10.0 mi South 8.1 mph - N/A   Clear
6:55 PM 51.1 °F - 30.2 °F 45% 29.56 in 10.0 mi SSE 5.8 mph - N/A   Clear
7:15 PM 47.5 °F - 30.2 °F 51% 29.56 in 10.0 mi SSE 5.8 mph - N/A   Clear
7:35 PM 44.4 °F - 29.3 °F 55% 29.56 in 10.0 mi Calm Calm - N/A   Clear
7:55 PM 44.8 °F - 29.7 °F 55% 29.57 in 10.0 mi Calm Calm - N/A   Clear
8:15 PM 50.2 °F - 29.3 °F 45% 29.56 in 10.0 mi Calm Calm - N/A   Clear
8:35 PM 48.9 °F - 29.3 °F 47% 29.56 in 10.0 mi Calm Calm - N/A   Clear
8:55 PM 46.4 °F 43.5 °F 28.9 °F 51% 29.55 in 10.0 mi SSE 5.8 mph - N/A   Clear
9:15 PM 46.6 °F - 28.9 °F 50% 29.55 in 10.0 mi South 5.8 mph - N/A   Clear
9:35 PM 47.7 °F - 28.4 °F 47% 29.55 in 10.0 mi South 6.9 mph - N/A   Clear
9:55 PM 47.1 °F - 28.6 °F 49% 29.54 in 10.0 mi South 5.8 mph - N/A   Clear
10:15 PM 45.7 °F 42.7 °F 28.4 °F 51% 29.54 in 10.0 mi South 5.8 mph - N/A   Clear
10:35 PM 45.0 °F 42.6 °F 28.6 °F 53% 29.54 in 10.0 mi South 4.6 mph - N/A   Clear
10:55 PM 45.5 °F 43.2 °F 28.4 °F 51% 29.53 in 10.0 mi South 4.6 mph - N/A   Clear
11:15 PM 45.7 °F 43.4 °F 28.4 °F 51% 29.53 in 10.0 mi South 4.6 mph - N/A   Clear
11:35 PM 45.7 °F 42.7 °F 28.4 °F 51% 29.53 in 10.0 mi South 5.8 mph - N/A   Clear
11:55 PM 39.0 °F 35.7 °F 27.9 °F 64% 29.54 in 10.0 mi SW 4.6 mph - N/A   Clear